Location: Brompton
(51.4000°N, 0.5333°E)
Time: 04:11:44
(UTC+00:00)

BREEZE-M DEB (TANK) - Pass Details

Date: 11 May 2021
Orbit: 277 x 16789 km, 49.5° (Epoch: 13 June)

Event Time Altitude Azimuth Distance (km) Brightness Sun altitude
Rises 20:19:05 0° 265° (W) 2,883 6.8 -6.2°
Reaches altitude 10° 20:21:51 10° 261° (W) 1,413 5.1 -6.5°
Maximum altitude 20:24:19 55° 181° (S) 353 1.2 -6.8°
Drops below altitude 10° 20:26:17 10° 101° (E) 1,129 3.4 -7.0°
Enters shadow 20:26:41 - 99° (E) 1,337 3.8 -7.1°
